Location: Bailleul
(50.3375°N, 2.8513°E)
Time: 11:32:42
(UTC+00:00)

Tsikada Rocket - Pass Details

Date: 16 June 2021
Orbit: 958 x 1009 km, 82.9° (Epoch: 27 July)

Event Time Altitude Azimuth Distance (km) Brightness Sun altitude
Exits shadow 23:28:39 23° 157° (SSE) 1,948 5.0 -16.1°
Maximum altitude 23:32:24 52° 92° (E) 1,191 4.4 -16.2°
Drops below altitude 10° 23:38:22 10° 18° (NNE) 2,707 7.4 -16.2°
Sets 23:40:55 0° 13° (NNE) 3,655 8.5 -16.3°
